Pampa, TX

5:25 AM CST on January 24, 2017 (GMT -0600)
Perry Lefors

Weather History for KPPA - December, 2013

Change the Weather History Date:

Friday, December 13, 2013

  Actual Average Record
Temperature  
Mean Temperature 44 °F -  
Max Temperature 59 °F 50 °F 75 °F (1977)
Min Temperature 30 °F 25 °F 7 °F (1989)
Degree Days  
Heating Degree Days 20    
Moisture  
Dew Point 27 °F    
Average Humidity 55    
Maximum Humidity 78    
Minimum Humidity 25    
Precipitation  
Precipitation 0.00 in - - ()
Sea Level Pressure  
Sea Level Pressure 29.83 in    
Wind  
Wind Speed 15 mph (West)    
Max Wind Speed 22 mph    
Max Gust Speed 26 mph    
Visibility 10 miles    
Events      
Averages and records for this station are not official NWS values.
T = Trace of Precipitation, MM = Missing Value Source: NWS Daily Summary

Daily Weather History Graph

Daily Weather History Graph

Search for Another Location

Airport or City:

Trip Planner

Search our weather history database for the weather conditions in past years. The results will help you decide how hot, cold, wet, or windy it might be!

Date:

Astronomy

Dec. 13, 2013 Rise Set
Actual Time 7:45 AM CST 5:31 PM CST
Civil Twilight 7:16 AM CST 6:00 PM CST
Nautical Twilight 6:44 AM CST 6:31 PM CST
Astronomical Twilight 6:13 AM CST 7:02 PM CST
Moon 3:11 PM CST (12/13) 4:14 AM CST (12/13)
Length of Visible Light 10h 43m
Length of Day
9h 46m
Waxing Gibbous, 88% of the Moon is Illuminated
Dec 13
Waxing Gibbous
Dec 17
Full
Dec 25
Last Quarter
Jan 1
New
Jan 7
First Quarter

Hourly Weather History & Observations

Time (CST) Temp. Windchill Dew Point Humidity Pressure Visibility Wind Dir Wind Speed Gust Speed Precip Events Conditions
12:15 AM 39.4 °F 30.1 °F 27.5 °F 62% 30.03 in 10.0 mi South 18.4 mph - N/A   Overcast
12:35 AM 39.9 °F 30.8 °F 28.4 °F 63% 30.02 in 10.0 mi SSW 18.4 mph 24.2 mph N/A   Overcast
12:55 AM 40.6 °F 31.7 °F 29.3 °F 64% 30.00 in 10.0 mi SSW 18.4 mph - N/A   Overcast
1:15 AM 41.9 °F 33.1 °F 30.7 °F 65% 30.00 in 10.0 mi SSW 19.6 mph 24.2 mph N/A   Overcast
1:35 AM 42.1 °F 34.2 °F 31.1 °F 65% 29.99 in 10.0 mi SSW 16.1 mph - N/A   Overcast
1:55 AM 42.8 °F 34.5 °F 31.6 °F 65% 29.98 in 10.0 mi SSW 18.4 mph - N/A   Overcast
2:15 AM 41.5 °F 32.4 °F 30.9 °F 66% 29.98 in 10.0 mi SSW 20.7 mph - N/A   Mostly Cloudy
2:35 AM 39.9 °F 30.8 °F 30.2 °F 68% 29.97 in 10.0 mi SW 18.4 mph 25.3 mph N/A   Scattered Clouds
2:55 AM 38.8 °F 29.7 °F 29.8 °F 70% 29.96 in 10.0 mi SSW 17.3 mph 25.3 mph N/A   Clear
3:15 AM 38.3 °F 29.7 °F 29.3 °F 70% 29.95 in 10.0 mi SW 15.0 mph - N/A   Clear
3:35 AM 37.8 °F 29.4 °F 29.3 °F 72% 29.94 in 10.0 mi SW 13.8 mph 21.9 mph N/A   Clear
3:55 AM 37.4 °F 28.5 °F 28.9 °F 71% 29.93 in 10.0 mi SSW 15.0 mph - N/A   Clear
4:15 AM 36.7 °F 27.2 °F 28.6 °F 72% 29.91 in 10.0 mi SSW 16.1 mph 21.9 mph N/A   Scattered Clouds
4:35 AM 36.7 °F 27.2 °F 28.4 °F 72% 29.89 in 10.0 mi SSW 16.1 mph - N/A   Clear
4:55 AM 36.3 °F 27.5 °F 28.2 °F 72% 29.87 in 10.0 mi SSW 13.8 mph - N/A   Clear
5:15 AM 36.0 °F 28.5 °F 28.2 °F 73% 29.87 in 10.0 mi SSW 10.4 mph - N/A   Clear
5:35 AM 37.6 °F 29.6 °F 30.2 °F 75% 29.86 in 10.0 mi SW 12.7 mph - N/A   Clear
5:55 AM 40.1 °F 32.0 °F 31.6 °F 72% 29.86 in 10.0 mi SW 15.0 mph 19.6 mph N/A   Clear
6:15 AM 40.5 °F 32.1 °F 32.0 °F 72% 29.85 in 10.0 mi SSW 16.1 mph - N/A   Clear
6:35 AM 41.5 °F 33.2 °F 32.5 °F 70% 29.84 in 10.0 mi SSW 17.3 mph 23.0 mph N/A   Clear
6:55 AM 40.1 °F 33.6 °F 32.0 °F 73% 29.84 in 10.0 mi SSW 10.4 mph - N/A   Clear
7:15 AM 40.5 °F 33.2 °F 32.2 °F 72% 29.83 in 10.0 mi SSW 12.7 mph - N/A   Clear
7:35 AM 39.4 °F 32.7 °F 32.0 °F 75% 29.83 in 10.0 mi SSW 10.4 mph - N/A   Clear
7:55 AM 38.7 °F 30.5 °F 32.0 °F 77% 29.82 in 10.0 mi SSW 13.8 mph - N/A   Clear
8:15 AM 38.3 °F 31.4 °F 32.0 °F 78% 29.82 in 10.0 mi SW 10.4 mph - N/A   Clear
8:35 AM 39.7 °F 32.7 °F 32.2 °F 74% 29.81 in 10.0 mi SW 11.5 mph - N/A   Clear
8:55 AM 42.8 °F 36.6 °F 33.1 °F 69% 29.80 in 10.0 mi SW 11.5 mph - N/A   Scattered Clouds
9:15 AM 43.2 °F 37.9 °F 33.1 °F 68% 29.80 in 10.0 mi SW 9.2 mph - N/A   Scattered Clouds
9:35 AM 45.3 °F 40.6 °F 33.8 °F 64% 29.80 in 10.0 mi SW 9.2 mph - N/A   Clear
9:55 AM 49.1 °F - 35.1 °F 58% 29.80 in 10.0 mi WSW 12.7 mph 17.3 mph N/A   Clear
10:15 AM 50.5 °F - 35.6 °F 57% 29.79 in 10.0 mi SW 15.0 mph - N/A   Clear
10:35 AM 51.4 °F - 35.6 °F 55% 29.79 in 10.0 mi WSW 15.0 mph - N/A   Clear
10:55 AM 53.2 °F - 36.0 °F 52% 29.78 in 10.0 mi WSW 13.8 mph 19.6 mph N/A   Clear
11:15 AM 54.9 °F - 35.8 °F 49% 29.76 in 10.0 mi WSW 12.7 mph - N/A   Clear
11:35 AM 55.4 °F - 35.6 °F 47% 29.76 in 10.0 mi WSW 15.0 mph - N/A   Clear
11:55 AM 55.9 °F - 35.6 °F 46% 29.75 in 10.0 mi WSW 13.8 mph - N/A   Clear
12:15 PM 57.2 °F - 35.4 °F 44% 29.73 in 10.0 mi WSW 11.5 mph 17.3 mph N/A   Clear
12:35 PM 57.2 °F - 34.9 °F 43% 29.73 in 10.0 mi West 15.0 mph 18.4 mph N/A   Clear
12:55 PM 57.4 °F - 34.9 °F 43% 29.72 in 10.0 mi West 11.5 mph - N/A   Clear
1:15 PM 57.9 °F - 34.7 °F 42% 29.70 in 10.0 mi WSW 12.7 mph 16.1 mph N/A   Clear
1:35 PM 58.5 °F - 34.5 °F 41% 29.69 in 10.0 mi WSW 8.1 mph - N/A   Clear
1:55 PM 59.2 °F - 34.7 °F 40% 29.68 in 10.0 mi West 8.1 mph - N/A   Clear
2:15 PM 59.4 °F - 34.9 °F 40% 29.67 in 10.0 mi WNW 6.9 mph - N/A   Clear
2:35 PM 59.4 °F - 34.5 °F 39% 29.67 in 10.0 mi NW 5.8 mph - N/A   Clear
2:55 PM 59.4 °F - 34.2 °F 39% 29.67 in 10.0 mi NW 10.4 mph - N/A   Clear
3:15 PM 58.5 °F - 33.8 °F 39% 29.68 in 10.0 mi NNW 12.7 mph 17.3 mph N/A   Clear
3:35 PM 58.1 °F - 32.9 °F 39% 29.69 in 10.0 mi NNW 10.4 mph - N/A   Clear
3:55 PM 55.6 °F - 20.7 °F 26% 29.69 in 10.0 mi North 18.4 mph 24.2 mph N/A   Clear
4:15 PM 52.3 °F - 17.2 °F 25% 29.70 in 10.0 mi North 21.9 mph 25.3 mph N/A   Clear
4:35 PM 52.0 °F - 17.8 °F 26% 29.71 in 10.0 mi North 18.4 mph 26.5 mph N/A   Clear
4:55 PM 49.8 °F - 18.5 °F 29% 29.73 in 10.0 mi North 16.1 mph - N/A   Clear
5:15 PM 46.6 °F - 18.0 °F 32% 29.74 in 10.0 mi North 12.7 mph - N/A   Scattered Clouds
5:35 PM 45.0 °F 38.5 °F 17.4 °F 33% 29.75 in 10.0 mi North 13.8 mph - N/A   Scattered Clouds
5:55 PM 43.2 °F 36.6 °F 17.2 °F 35% 29.76 in 10.0 mi NNW 12.7 mph - N/A   Clear
6:15 PM 42.4 °F 37.0 °F 17.4 °F 37% 29.78 in 10.0 mi NW 9.2 mph - N/A   Clear
6:35 PM 41.2 °F 34.5 °F 17.6 °F 39% 29.79 in 10.0 mi NNW 11.5 mph - N/A   Clear
6:55 PM 40.1 °F 33.2 °F 17.6 °F 40% 29.80 in 10.0 mi NNW 11.5 mph - N/A   Clear
7:15 PM 38.8 °F 31.6 °F 18.1 °F 43% 29.81 in 10.0 mi NNW 11.5 mph - N/A   Clear
7:35 PM 37.9 °F 31.5 °F 18.5 °F 46% 29.82 in 10.0 mi NNW 9.2 mph - N/A   Clear
7:55 PM 35.8 °F 28.3 °F 18.7 °F 50% 29.83 in 10.0 mi NNW 10.4 mph - N/A   Clear
8:15 PM 34.5 °F 27.3 °F 18.7 °F 52% 29.84 in 10.0 mi NNW 9.2 mph - N/A   Clear
8:35 PM 33.4 °F 25.4 °F 18.7 °F 55% 29.84 in 10.0 mi North 10.4 mph - N/A   Clear
8:55 PM 33.8 °F 24.8 °F 19.2 °F 55% 29.83 in 10.0 mi North 12.7 mph - N/A   Clear
9:15 PM 33.1 °F 26.1 °F 19.0 °F 56% 29.86 in 10.0 mi NNW 8.1 mph - N/A   Clear
9:35 PM 34.0 °F 25.0 °F 19.0 °F 54% 29.87 in 10.0 mi NNW 12.7 mph - N/A   Clear
9:55 PM 34.2 °F 25.7 °F 18.9 °F 54% 29.89 in 10.0 mi North 11.5 mph - N/A   Clear
10:15 PM 32.2 °F 25.0 °F 18.3 °F 57% 29.89 in 10.0 mi North 8.1 mph - N/A   Clear
10:35 PM 30.4 °F 20.0 °F 17.8 °F 60% 29.88 in 10.0 mi North 13.8 mph - N/A   Clear
10:55 PM 32.0 °F 23.0 °F 18.3 °F 57% 29.89 in 10.0 mi North 11.5 mph - N/A   Clear
11:15 PM 31.8 °F 22.3 °F 18.5 °F 58% 29.92 in 10.0 mi NNW 12.7 mph - N/A   Clear
11:35 PM 32.0 °F 22.1 °F 19.0 °F 59% 29.92 in 10.0 mi NNW 13.8 mph - N/A   Clear
11:55 PM 31.6 °F 20.7 °F 18.7 °F 59% 29.94 in 10.0 mi North 16.1 mph - N/A   Clear